Location: Le Rocchette
(44.3500°N, 7.8333°E)
Time: 15:12:47
(UTC+00:00)

CZ-4C R/B - Pass Details

Date: 17 November 2019
Orbit: 650 x 1352 km, 63.4° (Epoch: 08 December)

Event Time Altitude Azimuth Distance (km) Brightness Sun altitude
Exits shadow 03:32:38 18° 358° (N) 2,145 4.3 -31.0°
Drops below altitude 10° 03:35:26 10° 22° (NNE) 2,759 5.1 -30.5°
Sets 03:39:06 0° 39° (NE) 3,860 6.2 -29.8°
